Time,TemperatureF,DewpointF,PressureIn,WindDirection,WindDirectionDegrees,WindSpeedMPH,WindSpeedGustMPH,Humidity,HourlyPrecipIn,Conditions,Clouds,dailyrainin,SoftwareType,DateUTC
2013-08-11 00:01:00,75.0,74.7,30.02,WSW,247,0.0,-999.0,99,-99.99,,,0.00,Acu-Link.com,2013-08-11 05:01:00,
2013-08-11 00:16:00,74.8,74.5,30.03,West,270,0.0,-999.0,99,-99.99,,,0.00,Acu-Link.com,2013-08-11 05:16:00,
2013-08-11 00:31:00,74.8,74.5,30.03,NE,45,0.0,-999.0,99,-99.99,,,0.00,Acu-Link.com,2013-08-11 05:31:00,
2013-08-11 00:46:00,74.7,74.4,30.02,NE,45,0.0,-999.0,99,-99.99,,,0.00,Acu-Link.com,2013-08-11 05:46:00,
2013-08-11 01:01:00,74.7,74.4,30.02,West,270,0.0,-999.0,99,-99.99,,,0.00,Acu-Link.com,2013-08-11 06:01:00,
2013-08-11 01:16:00,74.7,74.4,30.03,WNW,292,0.0,-999.0,99,-99.99,,,0.00,Acu-Link.com,2013-08-11 06:16:00,
2013-08-11 01:31:00,74.8,74.5,30.02,NE,45,0.0,-999.0,99,-99.99,,,0.00,Acu-Link.com,2013-08-11 06:31:00,
2013-08-11 01:46:00,74.8,74.5,30.02,NNW,337,0.0,-999.0,99,-99.99,,,0.00,Acu-Link.com,2013-08-11 06:46:00,
2013-08-11 02:01:00,74.5,74.2,30.02,North,0,0.0,-999.0,99,-99.99,,,0.00,Acu-Link.com,2013-08-11 07:01:00,
2013-08-11 02:16:00,74.1,73.8,30.02,NNE,22,2.2,-999.0,99,-99.99,,,0.00,Acu-Link.com,2013-08-11 07:16:00,
2013-08-11 02:32:00,73.8,73.5,30.02,West,270,0.0,-999.0,99,-99.99,,,0.00,Acu-Link.com,2013-08-11 07:32:00,
2013-08-11 02:47:00,73.2,72.9,30.02,WNW,292,1.7,-999.0,99,-99.99,,,0.00,Acu-Link.com,2013-08-11 07:47:00,
2013-08-11 03:02:00,72.5,72.2,30.01,NW,315,0.0,-999.0,99,-99.99,,,0.00,Acu-Link.com,2013-08-11 08:02:00,
2013-08-11 03:34:00,72.1,71.8,30.02,NNE,22,0.0,-999.0,99,-99.99,,,0.00,Acu-Link.com,2013-08-11 08:34:00,
2013-08-11 03:49:00,71.6,71.3,30.02,West,270,0.0,-999.0,99,-99.99,,,0.00,Acu-Link.com,2013-08-11 08:49:00,
2013-08-11 04:04:00,70.7,70.4,30.02,WNW,292,0.0,-999.0,99,-99.99,,,0.00,Acu-Link.com,2013-08-11 09:04:00,
2013-08-11 04:19:00,70.0,69.7,30.02,WNW,292,0.0,-999.0,99,-99.99,,,0.00,Acu-Link.com,2013-08-11 09:19:00,
2013-08-11 04:34:00,69.4,69.1,30.03,NNW,337,0.0,-999.0,99,-99.99,,,0.00,Acu-Link.com,2013-08-11 09:34:00,
2013-08-11 04:49:00,68.7,68.4,30.03,WSW,247,0.0,-999.0,99,-99.99,,,0.00,Acu-Link.com,2013-08-11 09:49:00,
2013-08-11 05:04:00,68.2,67.9,30.03,West,270,0.0,-999.0,99,-99.99,,,0.00,Acu-Link.com,2013-08-11 10:04:00,
2013-08-11 05:19:00,67.8,67.5,30.04,WSW,247,0.0,-999.0,99,-99.99,,,0.00,Acu-Link.com,2013-08-11 10:19:00,
2013-08-11 05:34:00,67.5,67.2,30.04,NW,315,0.0,-999.0,99,-99.99,,,0.00,Acu-Link.com,2013-08-11 10:34:00,
2013-08-11 05:49:00,66.9,66.6,30.04,SW,225,0.0,-999.0,99,-99.99,,,0.00,Acu-Link.com,2013-08-11 10:49:00,
2013-08-11 06:05:00,66.7,66.4,30.04,WNW,292,0.0,-999.0,99,-99.99,,,0.00,Acu-Link.com,2013-08-11 11:05:00,
2013-08-11 06:20:00,66.7,66.4,30.04,SSW,202,0.0,-999.0,99,-99.99,,,0.00,Acu-Link.com,2013-08-11 11:20:00,
2013-08-11 06:35:00,66.4,66.1,30.05,South,180,0.0,-999.0,99,-99.99,,,0.00,Acu-Link.com,2013-08-11 11:35:00,
2013-08-11 06:50:00,66.7,66.4,30.04,SSW,202,0.0,-999.0,99,-99.99,,,0.00,Acu-Link.com,2013-08-11 11:50:00,
2013-08-11 07:05:00,67.3,67.0,30.04,West,270,0.0,-999.0,99,-99.99,,,0.00,Acu-Link.com,2013-08-11 12:05:00,
2013-08-11 07:20:00,67.8,67.5,30.05,East,90,1.7,-999.0,99,-99.99,,,0.00,Acu-Link.com,2013-08-11 12:20:00,
2013-08-11 07:35:00,69.4,69.1,30.04,NNE,22,1.7,-999.0,99,-99.99,,,0.00,Acu-Link.com,2013-08-11 12:35:00,
2013-08-11 08:05:00,75.9,74.4,30.05,NW,315,2.7,-999.0,95,-99.99,,,0.00,Acu-Link.com,2013-08-11 13:05:00,
2013-08-11 08:20:00,80.8,73.7,30.05,NE,45,1.7,-999.0,79,-99.99,,,0.00,Acu-Link.com,2013-08-11 13:20:00,
2013-08-11 08:35:00,83.5,72.7,30.05,ESE,112,2.2,-999.0,70,-99.99,,,0.00,Acu-Link.com,2013-08-11 13:35:00,
2013-08-11 08:51:00,80.2,72.7,30.05,NE,45,1.1,-999.0,78,-99.99,,,0.00,Acu-Link.com,2013-08-11 13:51:00,
2013-08-11 09:06:00,79.7,73.0,30.05,NNE,22,1.7,-999.0,80,-99.99,,,0.00,Acu-Link.com,2013-08-11 14:06:00,
2013-08-11 09:21:00,81.3,72.6,30.06,WSW,247,2.2,-999.0,75,-99.99,,,0.00,Acu-Link.com,2013-08-11 14:21:00,
2013-08-11 09:36:00,81.7,74.2,30.05,North,0,0.0,-999.0,78,-99.99,,,0.00,Acu-Link.com,2013-08-11 14:36:00,
2013-08-11 10:06:00,82.9,73.3,30.06,East,90,0.0,-999.0,73,-99.99,,,0.00,Acu-Link.com,2013-08-11 15:06:00,
2013-08-11 10:21:00,84.9,73.6,30.06,NW,315,1.7,-999.0,69,-99.99,,,0.00,Acu-Link.com,2013-08-11 15:21:00,
2013-08-11 10:36:00,84.2,72.0,30.05,West,270,4.2,-999.0,67,-99.99,,,0.00,Acu-Link.com,2013-08-11 15:36:00,
2013-08-11 10:51:00,85.6,72.5,30.06,ESE,112,0.0,-999.0,65,-99.99,,,0.00,Acu-Link.com,2013-08-11 15:51:00,
2013-08-11 11:06:00,86.0,72.8,30.06,WSW,247,2.7,-999.0,65,-99.99,,,0.00,Acu-Link.com,2013-08-11 16:06:00,
2013-08-11 11:37:00,86.0,71.9,30.05,ENE,67,0.0,-999.0,63,-99.99,,,0.00,Acu-Link.com,2013-08-11 16:37:00,
2013-08-11 12:07:00,86.7,73.5,30.05,WSW,247,0.0,-999.0,65,-99.99,,,0.00,Acu-Link.com,2013-08-11 17:07:00,
2013-08-11 12:22:00,85.8,73.5,30.05,North,0,0.0,-999.0,67,-99.99,,,0.00,Acu-Link.com,2013-08-11 17:22:00,
2013-08-11 12:37:00,84.7,73.8,30.05,South,180,2.2,-999.0,70,-99.99,,,0.00,Acu-Link.com,2013-08-11 17:37:00,
2013-08-11 12:52:00,84.9,73.6,30.04,WSW,247,4.2,-999.0,69,-99.99,,,0.00,Acu-Link.com,2013-08-11 17:52:00,
2013-08-11 13:07:00,85.3,74.8,30.03,NNE,22,0.0,-999.0,71,-99.99,,,0.00,Acu-Link.com,2013-08-11 18:07:00,
2013-08-11 13:22:00,85.8,73.5,30.03,NNW,337,2.7,-999.0,67,-99.99,,,0.00,Acu-Link.com,2013-08-11 18:22:00,
2013-08-11 13:53:00,87.8,73.6,30.03,SSW,202,2.7,-999.0,63,-99.99,,,0.00,Acu-Link.com,2013-08-11 18:53:00,
2013-08-11 14:08:00,88.7,74.9,30.02,SW,225,2.2,-999.0,64,-99.99,,,0.00,Acu-Link.com,2013-08-11 19:08:00,
2013-08-11 14:23:00,89.6,74.8,30.01,SW,225,5.3,-999.0,62,-99.99,,,0.00,Acu-Link.com,2013-08-11 19:23:00,
2013-08-11 14:38:00,88.3,75.0,30.01,NW,315,3.7,-999.0,65,-99.99,,,0.00,Acu-Link.com,2013-08-11 19:38:00,
2013-08-11 14:53:00,89.1,75.3,30.00,WNW,292,2.7,-999.0,64,-99.99,,,0.00,Acu-Link.com,2013-08-11 19:53:00,
2013-08-11 15:08:00,88.7,74.0,30.00,SW,225,4.2,-999.0,62,-99.99,,,0.00,Acu-Link.com,2013-08-11 20:08:00,
2013-08-11 15:23:00,89.4,74.1,29.99,SW,225,2.2,-999.0,61,-99.99,,,0.00,Acu-Link.com,2013-08-11 20:23:00,
2013-08-11 15:38:00,89.1,72.9,29.98,WSW,247,4.7,-999.0,59,-99.99,,,0.00,Acu-Link.com,2013-08-11 20:38:00,
2013-08-11 15:54:00,89.1,73.9,29.98,SW,225,2.2,-999.0,61,-99.99,,,0.00,Acu-Link.com,2013-08-11 20:54:00,
2013-08-11 16:09:00,88.3,75.0,29.98,SW,225,1.1,-999.0,65,-99.99,,,0.00,Acu-Link.com,2013-08-11 21:09:00,
2013-08-11 16:24:00,87.1,75.7,29.98,NNW,337,2.2,-999.0,69,-99.99,,,0.00,Acu-Link.com,2013-08-11 21:24:00,
2013-08-11 16:39:00,88.5,76.1,29.97,NE,45,2.7,-999.0,67,-99.99,,,0.00,Acu-Link.com,2013-08-11 21:39:00,
2013-08-11 17:09:00,88.2,76.3,29.97,SE,135,1.7,-999.0,68,-99.99,,,0.00,Acu-Link.com,2013-08-11 22:09:00,
2013-08-11 17:39:00,88.5,75.7,29.97,NNW,337,2.7,-999.0,66,-99.99,,,0.00,Acu-Link.com,2013-08-11 22:39:00,
2013-08-11 17:54:00,91.6,75.2,29.97,ENE,67,3.7,-999.0,59,-99.99,,,0.00,Acu-Link.com,2013-08-11 22:54:00,
2013-08-11 18:10:00,91.4,75.5,29.97,North,0,2.7,-999.0,60,-99.99,,,0.00,Acu-Link.com,2013-08-11 23:10:00,
2013-08-11 18:25:00,88.2,74.9,29.98,East,90,0.0,-999.0,65,-99.99,,,0.00,Acu-Link.com,2013-08-11 23:25:00,
2013-08-11 18:40:00,86.0,74.6,29.97,ESE,112,0.0,-999.0,69,-99.99,,,0.00,Acu-Link.com,2013-08-11 23:40:00,
2013-08-11 18:55:00,85.1,74.6,29.97,WNW,292,0.0,-999.0,71,-99.99,,,0.00,Acu-Link.com,2013-08-11 23:55:00,
2013-08-11 19:10:00,84.4,73.5,29.97,ENE,67,0.0,-999.0,70,-99.99,,,0.00,Acu-Link.com,2013-08-12 00:10:00,
2013-08-11 19:40:00,82.2,72.3,29.97,South,180,0.0,-999.0,72,-99.99,,,0.00,Acu-Link.com,2013-08-12 00:40:00,
2013-08-11 19:55:00,80.8,72.9,29.98,SSE,157,0.0,-999.0,77,-99.99,,,0.00,Acu-Link.com,2013-08-12 00:55:00,
2013-08-11 20:26:00,78.6,75.1,29.97,NE,45,0.0,-999.0,89,-99.99,,,0.00,Acu-Link.com,2013-08-12 01:26:00,
2013-08-11 20:56:00,77.2,76.0,29.98,SSE,157,0.0,-999.0,96,-99.99,,,0.00,Acu-Link.com,2013-08-12 01:56:00,
2013-08-11 21:11:00,76.5,76.2,29.99,NNE,22,0.0,-999.0,99,-99.99,,,0.00,Acu-Link.com,2013-08-12 02:11:00,
2013-08-11 21:26:00,76.1,75.8,30.00,SSE,157,0.0,-999.0,99,-99.99,,,0.00,Acu-Link.com,2013-08-12 02:26:00,
2013-08-11 21:56:00,75.0,74.7,30.01,SSE,157,0.0,-999.0,99,-99.99,,,0.00,Acu-Link.com,2013-08-12 02:56:00,
2013-08-11 22:11:00,74.7,74.4,30.01,SSE,157,0.0,-999.0,99,-99.99,,,0.00,Acu-Link.com,2013-08-12 03:11:00,
2013-08-11 22:26:00,74.1,73.8,30.01,SSE,157,0.0,-999.0,99,-99.99,,,0.00,Acu-Link.com,2013-08-12 03:26:00,
2013-08-11 22:41:00,74.1,73.8,30.01,SSE,157,0.0,-999.0,99,-99.99,,,0.00,Acu-Link.com,2013-08-12 03:41:00,
2013-08-11 22:57:00,73.6,73.3,30.00,SSE,157,0.0,-999.0,99,-99.99,,,0.00,Acu-Link.com,2013-08-12 03:57:00,
2013-08-11 23:12:00,73.4,73.1,30.00,South,180,0.0,-999.0,99,-99.99,,,0.00,Acu-Link.com,2013-08-12 04:12:00,
2013-08-11 23:27:00,73.0,72.7,30.00,SE,135,0.0,-999.0,99,-99.99,,,0.00,Acu-Link.com,2013-08-12 04:27:00,
2013-08-11 23:42:00,72.9,72.6,30.00,ENE,67,0.0,-999.0,99,-99.99,,,0.00,Acu-Link.com,2013-08-12 04:42:00,
2013-08-11 23:57:00,72.7,72.4,30.01,SSE,157,0.0,-999.0,99,-99.99,,,0.00,Acu-Link.com,2013-08-12 04:57:00,